When you browse on this site, cookies collect data to enhance your experience and personalize the content and advertising you see.
Visit our Privacy Policy to learn more. By continuing to use the site, you agree to this use of cookies and data.
  • In Portugal
  • List of Countries
  • For 7 days
  • Water Temperature
  • Weather Map
  • Weather Widgets
  • user-avatar
    Login

    Hourly Weather Jalalabad

    Today, 8 December, Sunday

    Time Temperature Precipitation Wind Pressure Humidity
    00:00 +13°C° 0 mm 1 mps 713 mmHg 23%
    01:00 +13°C° 0 mm 1 mps 713 mmHg 23%
    02:00 +12°C° 0 mm 1 mps 712 mmHg 23%
    03:00 +12°C° 0 mm 1 mps 712 mmHg 22%
    04:00 +12°C° 0 mm 1 mps 712 mmHg 22%
    05:00 +11°C° 0 mm 1 mps 712 mmHg 23%
    06:00 +11°C° 0 mm 1 mps 712 mmHg 23%
    07:00 +12°C° 0 mm 1 mps 712 mmHg 23%
    08:00 +12°C° 0 mm 1 mps 713 mmHg 23%
    09:00 +14°C° 0 mm 1 mps 713 mmHg 19%
    10:00 +15°C° 0 mm 0 mps 713 mmHg 16%
    11:00 +18°C° 0 mm 0 mps 713 mmHg 12%
    12:00 +18°C° 0 mm 0 mps 713 mmHg 12%
    13:00 +19°C° 0 mm 0 mps 713 mmHg 12%
    14:00 +20°C° 0 mm 0 mps 713 mmHg 11%
    15:00 +18°C° 0 mm 0 mps 712 mmHg 16%
    16:00 +17°C° 0 mm 0 mps 712 mmHg 20%
    17:00 +15°C° 0 mm 0 mps 711 mmHg 24%
    18:00 +14°C° 0 mm 0 mps 712 mmHg 24%
    19:00 +14°C° 0 mm 0 mps 712 mmHg 25%
    20:00 +13°C° 0 mm 0 mps 712 mmHg 25%
    21:00 +13°C° 0 mm 0 mps 712 mmHg 24%
    22:00 +13°C° 0 mm 0 mps 712 mmHg 24%
    23:00 +12°C° 0 mm 0 mps 712 mmHg 24%

    Tomorrow, 9 December, Monday

    Time Temperature Precipitation Wind Pressure Humidity
    00:00 +12°C° 0 mm 0 mps 712 mmHg 24%
    01:00 +12°C° 0 mm 0 mps 711 mmHg 23%
    02:00 +11°C° 0 mm 0 mps 711 mmHg 23%
    03:00 +11°C° 0 mm 0 mps 711 mmHg 23%
    04:00 +11°C° 0 mm 0 mps 711 mmHg 23%
    05:00 +10°C° 0 mm 0 mps 710 mmHg 22%
    06:00 +11°C° 0 mm 0 mps 710 mmHg 23%
    07:00 +11°C° 0 mm 0 mps 711 mmHg 23%
    08:00 +11°C° 0 mm 0 mps 711 mmHg 23%
    09:00 +13°C° 0 mm 0 mps 711 mmHg 20%
    10:00 +16°C° 0 mm 1 mps 712 mmHg 16%
    11:00 +19°C° 0 mm 1 mps 712 mmHg 12%
    12:00 +20°C° 0 mm 1 mps 712 mmHg 12%
    13:00 +20°C° 0 mm 1 mps 711 mmHg 12%
    14:00 +21°C° 0 mm 1 mps 711 mmHg 12%
    15:00 +20°C° 0 mm 1 mps 711 mmHg 16%
    16:00 +17°C° 0 mm 0 mps 711 mmHg 20%
    17:00 +16°C° 0 mm 0 mps 711 mmHg 23%
    18:00 +15°C° 0 mm 0 mps 711 mmHg 24%
    19:00 +14°C° 0 mm 0 mps 711 mmHg 25%
    20:00 +13°C° 0 mm 0 mps 712 mmHg 25%
    21:00 +13°C° 0 mm 0 mps 712 mmHg 25%
    22:00 +13°C° 0 mm 0 mps 712 mmHg 26%
    23:00 +12°C° 0 mm 0 mps 712 mmHg 26%

    Day after tomorrow, 10 December, Tuesday

    Time Temperature Precipitation Wind Pressure Humidity
    00:00 +12°C° 0 mm 0 mps 711 mmHg 26%
    01:00 +12°C° 0 mm 0 mps 711 mmHg 26%
    02:00 +12°C° 0 mm 0 mps 711 mmHg 27%
    03:00 +12°C° 0 mm 0 mps 710 mmHg 27%
    04:00 +11°C° 0 mm 0 mps 710 mmHg 27%
    05:00 +11°C° 0 mm 0 mps 709 mmHg 28%
    06:00 +11°C° 0 mm 0 mps 709 mmHg 28%
    07:00 +11°C° 0 mm 0 mps 710 mmHg 28%
    08:00 +12°C° 0 mm 0 mps 710 mmHg 29%
    09:00 +13°C° 0 mm 0 mps 710 mmHg 25%
    10:00 +15°C° 0 mm 0 mps 710 mmHg 21%
    11:00 +17°C° 0 mm 0 mps 710 mmHg 17%
    12:00 +17°C° 0 mm 0 mps 710 mmHg 18%
    13:00 +19°C° 0 mm 1 mps 709 mmHg 18%
    14:00 +20°C° 0 mm 1 mps 709 mmHg 19%
    15:00 +19°C° 0 mm 1 mps 708 mmHg 26%
    16:00 +18°C° 0 mm 1 mps 708 mmHg 33%
    17:00 +16°C° 0 mm 2 mps 708 mmHg 40%
    18:00 +15°C° 0 mm 1 mps 708 mmHg 45%
    19:00 +14°C° 0 mm 1 mps 708 mmHg 51%
    20:00 +12°C° 0 mm 0 mps 709 mmHg 57%
    21:00 +12°C° 0 mm 0 mps 709 mmHg 57%
    22:00 +11°C° 0 mm 0 mps 709 mmHg 57%
    23:00 +11°C° 0 mm 0 mps 709 mmHg 57%

    11 December, Wednesday

    Time Temperature Precipitation Wind Pressure Humidity
    00:00 +10°C° 0 mm 0 mps 709 mmHg 57%
    01:00 +10°C° 0 mm 0 mps 709 mmHg 57%
    02:00 +10°C° 0 mm 0 mps 708 mmHg 58%
    03:00 +9°C° 0 mm 0 mps 708 mmHg 57%
    04:00 +9°C° 0 mm 0 mps 708 mmHg 57%
    05:00 +9°C° 0 mm 0 mps 708 mmHg 57%
    06:00 +9°C° 0 mm 0 mps 709 mmHg 57%
    07:00 +9°C° 0 mm 0 mps 709 mmHg 57%
    08:00 +9°C° 0 mm 0 mps 709 mmHg 57%
    09:00 +11°C° 0 mm 0 mps 709 mmHg 51%
    10:00 +13°C° 0 mm 0 mps 709 mmHg 46%
    11:00 +14°C° 0 mm 0 mps 709 mmHg 40%
    12:00 +15°C° 0 mm 0 mps 709 mmHg 39%
    13:00 +16°C° 0 mm 1 mps 708 mmHg 38%
    14:00 +18°C° 0 mm 1 mps 707 mmHg 37%
    15:00 +15°C° 0 mm 0 mps 707 mmHg 40%
    16:00 +15°C° 0 mm 0 mps 707 mmHg 44%
    17:00 +14°C° 0 mm 0 mps 707 mmHg 47%
    18:00 +14°C° 0 mm 0 mps 708 mmHg 48%
    19:00 +13°C° 0 mm 0 mps 708 mmHg 50%
    20:00 +13°C° 0 mm 0 mps 708 mmHg 51%
    21:00 +12°C° 0 mm 0 mps 708 mmHg 51%
    22:00 +12°C° 0 mm 0 mps 708 mmHg 52%
    23:00 +12°C° 0 mm 0 mps 708 mmHg 52%

    12 December, Thursday

    Time Temperature Precipitation Wind Pressure Humidity
    00:00 +11°C° 0 mm 0 mps 708 mmHg 52%
    01:00 +11°C° 0 mm 0 mps 708 mmHg 52%
    02:00 +11°C° 0 mm 0 mps 708 mmHg 52%
    03:00 +11°C° 0 mm 0 mps 708 mmHg 52%
    04:00 +11°C° 0 mm 0 mps 708 mmHg 52%
    05:00 +10°C° 0 mm 0 mps 707 mmHg 52%
    06:00 +12°C° 0 mm 1 mps 708 mmHg 51%
    07:00 +12°C° 0 mm 1 mps 708 mmHg 51%
    08:00 +13°C° 0 mm 1 mps 708 mmHg 50%
    09:00 +13°C° 0.2 mm 2 mps 708 mmHg 57%
    10:00 +12°C° 0.2 mm 3 mps 708 mmHg 65%
    11:00 +12°C° 0.2 mm 3 mps 708 mmHg 72%
    12:00 +11°C° 0.6 mm 3 mps 708 mmHg 76%
    13:00 +12°C° 0.6 mm 2 mps 707 mmHg 79%
    14:00 +11°C° 0.6 mm 1 mps 707 mmHg 82%
    15:00 +11°C° 0.2 mm 1 mps 707 mmHg 81%
    16:00 +11°C° 0.2 mm 1 mps 707 mmHg 80%
    17:00 +11°C° 0.2 mm 1 mps 707 mmHg 78%
    18:00 +11°C° 0.2 mm 1 mps 707 mmHg 79%
    19:00 +11°C° 0.2 mm 1 mps 708 mmHg 80%
    20:00 +10°C° 0.2 mm 0 mps 708 mmHg 81%
    21:00 +10°C° 0.2 mm 0 mps 708 mmHg 82%
    22:00 +10°C° 0.2 mm 0 mps 708 mmHg 83%
    23:00 +10°C° 0.2 mm 1 mps 708 mmHg 85%

    13 December, Friday

    Time Temperature Precipitation Wind Pressure Humidity
    00:00 +9°C° 0.1 mm 0 mps 708 mmHg 85%
    01:00 +9°C° 0.1 mm 0 mps 708 mmHg 85%
    02:00 +9°C° 0.1 mm 0 mps 707 mmHg 84%
    03:00 +9°C° 0.2 mm 0 mps 707 mmHg 84%
    04:00 +9°C° 0.2 mm 0 mps 707 mmHg 84%
    05:00 +9°C° 0.2 mm 0 mps 707 mmHg 84%
    06:00 +9°C° 0.1 mm 0 mps 708 mmHg 84%
    07:00 +10°C° 0.1 mm 0 mps 708 mmHg 83%
    08:00 +10°C° 0.1 mm 0 mps 708 mmHg 82%
    09:00 +10°C° 0 mm 0 mps 708 mmHg 78%
    10:00 +11°C° 0 mm 0 mps 708 mmHg 75%
    11:00 +11°C° 0 mm 0 mps 708 mmHg 71%
    12:00 +12°C° 0 mm 0 mps 708 mmHg 67%
    13:00 +13°C° 0 mm 1 mps 707 mmHg 63%
    14:00 +14°C° 0 mm 1 mps 707 mmHg 59%
    15:00 +14°C° 0 mm 1 mps 707 mmHg 59%
    16:00 +14°C° 0 mm 1 mps 708 mmHg 60%
    17:00 +14°C° 0 mm 1 mps 708 mmHg 61%
    18:00 +13°C° 0 mm 1 mps 709 mmHg 64%
    19:00 +13°C° 0 mm 1 mps 710 mmHg 67%
    20:00 +11°C° 0 mm 0 mps 711 mmHg 69%
    21:00 +11°C° 0 mm 0 mps 711 mmHg 70%
    22:00 +11°C° 0 mm 0 mps 711 mmHg 71%
    23:00 +10°C° 0 mm 0 mps 712 mmHg 72%
    Show more